Location: Asheville, NC
(35.6000°N, 82.5500°W)
Time: 02:36:20
(UTC-04:00)

BEESAT 3 - Pass Details

Date: 09 March 2018
Orbit: 499 x 517 km, 64.9° (Epoch: 20 June)

Event Time Altitude Azimuth Distance (km) Brightness Sun altitude
Rises 20:18:18 0° 206° (SSW) 2,609 ? -22.2°
Reaches altitude 10° 20:20:27 10° 206° (SSW) 1,729 ? -22.6°
Enters shadow 20:23:04 42° 202° (SSW) 747 ? -23.1°
